Miscellaneous Local Product
Issued by NWS North Platte, NE

Home | Current Version | Previous Version | Text Only | Print | Product List | Glossary On
Versions: 1 2 3 4 5 6 7 8 9 10 11 12 13 14 15 16 17 18 19 20 21 22 23 24 25 26 27 28 29 30 31 32 33 34 35 36 37 38 39 40 41 42 43 44 45 46 47 48 49 50
000
AXUS43 KLBF 280510
MISLBF


WESTERN AND NORTH CENTRAL NEBRASKA HOURLY WEATHER ROUNDUP
NATIONAL WEATHER SERVICE NORTH PLATTE NE
1200 AM CDT THU MAY 28 2015

***STATIONS NOT REPORTING VARIABLES SUCH AS SKY/WEATHER OR
PRESSURE ARE PROVIDED BY THE NEBRASKA DEPARTMENT OF
ROADS...RAWS...AND APRS NETWORKS...AND ARE NOT UNDER
NATIONAL WEATHER SERVICE QUALITY CONTROL***

...OBSERVATIONS IN AND NEAR THE EASTERN PANHANDLE OF NEBRASKA...

CITY           SKY/WX    TMP DP  RH WIND       PRES   REMARKS
PINE RIDGE     CLEAR     62  54  74 S23G32    29.98R
CHADRON        CLEAR     62  55  77 S24       29.97S
ALLIANCE       PTCLDY    58  54  86 S18       30.03R
SIDNEY         MOCLDY    57  52  83 S18G26    30.06S
WHITECLAY        N/A     62  54  76 S21         N/A
BIG SPRINGS      N/A     58  54  87 S12         N/A
$$

...OBSERVATIONS IN NORTH CENTRAL NEBRASKA...

CITY           SKY/WX    TMP DP  RH WIND       PRES   REMARKS
VALENTINE      CLOUDY    63  54  72 S12       29.99S
THEDFORD       PTCLDY    60  57  89 S6        30.04S
AINSWORTH      CLOUDY    63  55  76 S8        30.02S
O`NEILL        CLOUDY    63  54  73 S6        30.04R
ORD            CLOUDY    65  57  75 S7        30.02F
BROKEN BOW     MOCLDY    61  56  83 SE6       30.03F
BROWNLEE         N/A     63  58  82 S10         N/A
VALENTINE NWR    N/A     59  56  91 SE6G13      N/A
SPRINGVIEW       N/A     65  55  70 SE5         N/A
HALSEY           N/A     61  54  77 SE5         N/A
BREWSTER         N/A     65  60  83 S3          N/A
ROSE             N/A     65  59  81 E9          N/A
NEWPORT          N/A     65  55  70 S10         N/A
SARGENT          N/A     62  58  86 CALM        N/A
COMSTOCK         N/A     68  63  85 CALM        N/A
EWING            N/A     64  54  70 S3          N/A
$$

...OBSERVATIONS IN SOUTHWEST NEBRASKA AND FAR NORTHEAST COLORADO...

CITY           SKY/WX    TMP DP  RH WIND       PRES   REMARKS
WRAY           FAIR      58  53  85 SE12      30.07R
HOLYOKE        FAIR      59  54  82 SE12      30.07S
IMPERIAL       MOCLDY    57  53  86 S10       30.05F
OGALLALA       CLEAR     58  53  83 S7        30.04S
NORTH PLATTE   PTCLDY    62  57  83 S8        30.03F
MCCOOK         CLOUDY    63  59  87 S13G22    30.03F
LEXINGTON      CLOUDY    64  60  87 SE6       30.02S
PAXTON           N/A     60  56  88 S13         N/A
GOTHENBURG       N/A     65  57  75 S7          N/A
CALLAWAY         N/A     61  57  87 E8          N/A
$$

...NORTH PLATTE AREA...

CITY           SKY/WX    TMP DP  RH WIND       PRES   REMARKS
AIRPORT        PTCLDY    62  57  83 S8        30.03F
DOWNTOWN         N/A     62  57  84 S3G12       N/A
$$

...SOME WEATHER OBSERVATIONS FROM AROUND THE REGION...

CITY           SKY/WX    TMP DP  RH WIND       PRES   REMARKS
DENVER         MOCLDY    63  47  55 SW14      30.07R THUNDER
LARAMIE        MOCLDY    47  39  74 N5        30.15S
CHEYENNE       LGT RAIN  54  52  93 E15G21    30.10F
SCOTTSBLUFF    CLOUDY    60  55  83 SE18      29.99F
RAPID CITY     PTCLDY    59  56  89 CALM      29.95R
PIERRE         LGT RAIN  63  60  90 S15       29.94F
WINNER         FAIR      68  53  58 S9        29.98R
SIOUX FALLS    PTCLDY    67  51  56 S8        30.03R
OMAHA          CLOUDY    67  53  61 SE7       30.07S
GRAND ISLAND   CLOUDY    67  58  72 S9        30.05F
KANSAS CITY    CLOUDY    68  55  63 SE6       30.09F
WICHITA        CLOUDY    73  67  81 SE5       30.07R
HAYS           CLOUDY    66  52  59 S33G49    29.97F
LIBERAL        CLOUDY    63  54  72 E10       30.08S
GOODLAND       CLOUDY    59  57  93 SE15      30.08F
$$



USA.gov is the U.S. government's official web portal to all federal, state and local government web resources and services.